Weather observations for the past three days for
Willimantic, Windham Airport
Metric (Imperial)
Date Time (edt) Wind (kph) Vis. (km) Weather Sky Cond. Temperature (ºC) Relative Humidity Wind Chill (°C) Heat Index (°C) Pressure Precipitation (cm)
Air Dwpt 6 hour altimeter (cm) sea level (mb) 1 hr 3 hr 6 hr
Max. Min.
16 07:52 NE 6 16.09 Fair CLR 14.4 8.3 14.4 8.9 67% 76.94 1025.8
16 06:52 Calm 16.09 Fair CLR 11.7 8.3 80% 76.86 1024.5
16 05:52 NE 6 16.09 Fair CLR 9.4 8.3 93% 76.78 1023.5
16 04:52 NE 7 16.09 Fair CLR 8.9 7.8 93% 8 76.73 1022.9
16 03:52 Calm 16.09 Fair CLR 10.6 8.9 89% 76.71 1022.6
16 02:52 NE 6 16.09 Fair CLR 11.7 10 89% 76.66 1021.7
16 01:52 NE 7 16.09 Fair CLR 12.2 10.6 21.1 11.7 90% 76.63 1021.4
16 00:52 Calm 16.09 Partly Cloudy SCT075 12.8 11.1 90% 76.61 1021.1
15 23:52 Calm 16.09 A Few Clouds FEW075 13.3 10.6 84% 76.58 1020.7
15 22:52 N 6 16.09 Fair CLR 14.4 11.1 81% 76.45 1019.3
15 21:52 N 6 16.09 Fair CLR 16.1 11.1 72% 76.4 1018.5
15 20:52 Calm 16.09 Fair CLR 17.8 11.1 65% 76.35 1017.8
15 19:52 Calm 16.09 Fair CLR 21.1 10.6 25.6 21.1 51% 76.28 1016.8
15 18:52 N 11 16.09 Fair CLR 23.9 6.7 33% 25 76.23 1016.1
15 17:52 N 20 16.09 Fair CLR 24.4 5.6 30% 25 76.23 1015.9
15 16:52 N 17 16.09 Fair CLR 25 6.7 31% 25 76.17 1015.5
15 15:52 N 17 G 28 16.09 A Few Clouds FEW070 25.6 7.8 32% 26 76.15 1014.9
15 14:52 NW 24 G 41 16.09 Fair CLR 24.4 5.6 30% 25 76.17 1015.2
15 13:52 N 22 G 35 16.09 Fair CLR 24.4 6.1 24.4 18.3 31% 25 76.17 1015.3
15 12:52 N 24 G 37 16.09 Fair CLR 23.3 7.2 36% 76.17 1015.3
15 11:52 NW 19 G 39 16.09 A Few Clouds FEW050 23.3 8.3 38% 76.15 1015.0
15 10:52 N 22 16.09 Fair CLR 22.2 11.7 52% 76.1 1014.2
15 09:52 NW 22 16.09 Fair CLR 22.2 12.2 53% 76.07 1014.0
15 08:52 N 13 16.09 Partly Cloudy SCT075 20.6 13.3 63% 76.07 1014.0
15 07:52 N 15 16.09 Mostly Cloudy BKN065 18.3 13.9 19.4 16.1 76% 76.05 1013.8
15 06:52 N 11 16.09 Partly Cloudy SCT060 18.3 15 81% 75.97 1012.7
15 05:52 NE 9 16.09 Fair CLR 16.7 15.6 93% 75.92 1012.1
15 04:52 Calm 16.09 Mostly Cloudy BKN110 16.7 16.1 96% 75.87 1011.2
15 03:52 Calm 16.09 Fair CLR 17.2 16.1 93% 75.82 1010.6
15 02:52 Calm 16.09 Overcast OVC090 17.8 16.1 90% 75.84 1010.9
15 01:52 Calm 16.09 Overcast BKN090 OVC110 18.3 16.1 22.8 18.3 87% 75.82 1010.6 0.13
15 00:52 N 11 16.09 Overcast OVC110 19.4 18.3 93% 75.82 1010.7
14 23:52 W 6 16.09 Overcast OVC100 20.6 18.9 90% 75.87 1011.3
14 22:52 SE 6 16.09 Light Rain FEW010 OVC100 20.6 19.4 93% 75.79 1010.3 0.03 0.13
14 21:52 S 11 11.27 Light Rain SCT024 BKN070 OVC110 21.1 20.6 97% 75.87 1011.1 0.1
14 20:52 S 11 14.48 Light Rain FEW065 SCT080 OVC110 22.2 20.6 91% 75.84 1010.9
14 19:52 Calm 16.09 Mostly Cloudy BKN100 22.8 20.6 27.8 22.8 87% 75.84 1010.7
14 18:52 S 7 16.09 Mostly Cloudy FEW022 BKN100 BKN120 23.9 20.6 82% 24 75.77 1010.0
14 17:52 NE 7 16.09 Mostly Cloudy SCT034 BKN045 BKN100 25 20 74% 26 75.74 1009.6
14 16:52 W 6 16.09 Mostly Cloudy BKN034 BKN045 26.1 19.4 67% 27 75.79 1010.2
14 15:52 SW 11 16.09 Mostly Cloudy SCT030 BKN036 BKN085 26.7 18.9 62% 28 75.79 1010.1
14 14:52 S 19 16.09 Fair CLR 27.8 18.9 58% 29 75.79 1010.2
14 13:52 Vrbl 11 16.09 Fair CLR 26.1 18.9 27.8 21.7 65% 27 75.84 1010.9
14 12:52 SW 11 16.09 A Few Clouds FEW100 25.6 18.3 64% 27 75.9 1011.6
14 11:52 S 20 G 30 16.09 Partly Cloudy FEW032 SCT070 27.8 18.9 58% 29 75.92 1011.8
14 10:52 S 13 16.09 Fair CLR 26.7 18.3 60% 28 75.9 1011.7
14 09:52 S 13 16.09 Fair CLR 24.4 17.8 67% 25 75.92 1012.0
14 08:52 SW 15 16.09 Fair CLR 23.3 16.7 67% 75.95 1012.4
14 07:52 SW 13 16.09 Fair CLR 21.7 16.1 21.7 17.8 71% 75.97 1012.4
14 06:52 S 9 16.09 Fair CLR 20 15.6 76% 75.95 1012.2
14 05:52 S 6 16.09 Fair CLR 18.3 15.6 84% 75.95 1012.4
14 04:52 SE 6 16.09 Fair CLR 17.8 15.6 87% 75.95 1012.4
14 03:52 S 9 16.09 Fair CLR 17.8 15 84% 75.95 1012.2
14 02:52 S 9 16.09 Fair CLR 18.3 15 81% 75.97 1012.7
14 01:52 S 7 16.09 Fair CLR 19.4 15 24.4 19.4 76% 76.02 1013.3
14 00:52 S 11 16.09 Fair CLR 19.4 15 76% 76.05 1013.8
13 23:52 S 11 16.09 Fair CLR 20 14.4 70% 76.1 0.0
13 22:52 S 11 16.09 Fair CLR 20.6 15 70% 76.12 0.0
13 20:52 S 7 16.09 Fair CLR 22.2 14.4 61% 76.15 1014.8
13 19:52 SW 15 16.09 Fair CLR 24.4 13.9 28.9 24.4 52% 26 76.15 1014.9
13 18:52 SW 15 16.09 Fair CLR 25.6 13.3 47% 26 76.1 1014.4
13 17:52 S 17 G 33 16.09 Fair CLR 26.7 14.4 47% 27 76.07 1014.0
13 16:52 S 17 16.09 A Few Clouds FEW050 27.2 15.6 49% 28 76.1 1014.3
13 15:52 S 20 G 33 16.09 Partly Cloudy SCT060 27.8 13.9 43% 28 76.1 1014.3
13 14:52 SW 11 G 30 16.09 A Few Clouds FEW065 27.2 14.4 45% 27 76.12 1014.7
13 13:52 Vrbl 9 16.09 Fair CLR 28.3 12.2 37% 28 76.15 1015.0
13 12:52 Calm 16.09 NULL NULL 26.7 11.7 39% 27 76.17 1015.3
13 11:52 Vrbl 6 16.09 NULL NULL 0 0 0% 76.2 0.0
13 10:52 Calm 16.09 Fair CLR 0 0 0% 76.23 0.0
13 09:52 S 7 16.09 Fair CLR 23.3 15 60% 76.25 1016.5
13 08:52 Calm 16.09 Fair CLR 19.4 13.3 68% 76.28 1016.7
Date Time (edt) Wind (kph) Vis. (km) Weather Sky Cond. Air Dwpt Max. Min. Relative Humidity Wind Chill (°C) Heat Index (°C) altimeter (cm) sea level (mb) 1 hr 3 hr 6 hr
6 hour
Temperature (ºC) Pressure Precipitation (cm)